[Date Prev][Date Next][Thread Prev][Thread Next] - [Date Index][Thread Index][Author Index]

2 Line ISS Keps 9-26



ISS
1 25544U 98067A   05269.00104079  .00020942  00000-0  15170-3 0  4318
2 25544 051.6437 104.6197 0001863 087.9175 075.3898 15.73402524391546
----
Via the sarex mailing list at AMSAT.ORG courtesy of AMSAT-NA.
To unsubscribe, send "unsubscribe sarex" to Majordomo@amsat.org



AMSAT Top AMSAT Home